Home   Weather   Jacksonville   Past weeks

Flag for USA Past Weather in Jacksonville, Florida, USA — Yesterday and Last 2 Weeks

78 °F

Passing clouds.

Feels Like: 80 °F
Forecast: 67 / 80 °F
Wind: 6 mph from Northeast

Location: Jacksonville Naval Air Station

Current Time: Oct 26, 2016 at 7:20:01 PM

Latest Report: Oct 26, 2016 at 6:53 PM

Visibility: 10 mi

Pressure: 30.21 "Hg

Humidity: 71%

Dew Point: 68 °F

Location of JacksonvilleLocation

Past Weather in Jacksonville — Graph


Jacksonville Temperature Yesterday

Maximum temperature yesterday: 80 °F (at 3:53 PM)
Minimum temperature yesterday: 58 °F (at 5:53 AM)
Average temperature yesterday: 70 °F

High & Low Weather Summary for the Past Weeks

High88 °F (Oct 21, 3:53 PM)97% (Oct 21, 7:04 AM)30.27 "Hg (Oct 21, 7:04 AM)
Low54 °F (Oct 24, 4:53 AM)26% (Oct 22, 4:53 PM)29.72 "Hg (Oct 21, 3:53 PM)
Average74 °F67%30.08 "Hg
* Reported Oct 11 5:53 PM — Oct 26 5:53 PM, Jacksonville, Weather by CustomWeather, © 2016

Note: Actual official high and low records may vary slightly from our data, if they occured in-between our weather recording intervals... More about our weather records


Jacksonville Weather History for the Previous 24 Hours

Scroll right to see more
Time TempWeatherWind HumidityBarometerVisibility
5:53 PM
Wed, Oct 26
80 °FPartly sunny.12 mph64%30.21 "Hg10 mi
4:53 PM82 °FPartly sunny.13 mph53%30.21 "Hg10 mi
3:53 PM83 °FScattered clouds.10 mph51%30.21 "Hg10 mi
2:53 PM82 °FLight rain. Partly sunny.13 mph56%30.22 "Hg10 mi
1:53 PM82 °FPartly sunny.14 mph56%30.22 "Hg10 mi
12:53 PM83 °FPartly sunny.12 mph51%30.24 "Hg10 mi
11:53 AM83 °FPartly sunny.10 mph50%30.26 "Hg10 mi
10:53 AM78 °FScattered clouds.6 mph69%30.26 "Hg10 mi
9:53 AM75 °FScattered clouds.8 mph76%30.26 "Hg10 mi
8:53 AM72 °FScattered clouds.7 mph84%30.25 "Hg10 mi
7:53 AM70 °FScattered clouds.7 mph90%30.23 "Hg8 mi
6:53 AM70 °FPassing clouds.5 mph90%30.22 "Hg8 mi
5:53 AM71 °FPassing clouds.7 mph87%30.21 "Hg9 mi
4:53 AM73 °FClear.5 mph84%30.20 "Hg9 mi
3:53 AM73 °FClear.7 mph84%30.21 "Hg10 mi
2:53 AM73 °FPassing clouds.7 mph84%30.21 "Hg10 mi
1:53 AM74 °FPassing clouds.8 mph85%30.22 "Hg10 mi
12:53 AM74 °FPassing clouds.9 mph85%30.23 "Hg10 mi
11:53 PM
Tue, Oct 25
74 °FPassing clouds.9 mph88%30.24 "Hg9 mi
10:53 PM75 °FPassing clouds.8 mph82%30.23 "Hg10 mi
9:53 PM75 °FPassing clouds.10 mph82%30.23 "Hg10 mi
8:53 PM75 °FPassing clouds.12 mph82%30.22 "Hg10 mi
7:53 PM75 °FPassing clouds.12 mph79%30.21 "Hg10 mi
Weather by CustomWeather, © 2016

See weather overviewHow to use our weather pages